KAZEOSAT 2

Last updated on Fri Oct 04 2024 00:02:25 GMT+0000 (Coordinated Universal Time)

1 40010U 14033A 24277.57141680 .00003513 00000+0 43912-3 0 9993 2 40010 97.6026 137.4615 0010964 206.8631 153.2017 14.82889909556722
UTC large
Height (km)
Speed (km/s)
/
Latitude / Longitude
Inclination (degrees)
Orbital Period (minutes)
Azimuth
Elevation
Range (km)
Doppler Factor

Next 0 passes for location: London (51.5072 / 0.1276)

Sorry there are no passes over London.